IZ2OSD Weather Reports


time (UTC)temp
F
wind
direction
speed
knots
gust
knots
rain 1hr
in
rain 24hr
in
rain mn
in
humidity
%
barometer
mb
20260506164917 56 270 3.5 9.6 0.00 0.46 0.44 85 1006.4
20260506163934 56 315 1.7 2.6 0.00 0.46 0.44 85 1006.7
20260506162911 56 0.0 0.9 0.00 0.46 0.44 87 1006.3
20260506161930 57 0.0 0.0 0.00 0.46 0.44 87 1005.9
20260506160928 56 315 3.5 7.0 0.00 0.47 0.44 87 1005.2
20260506155902 56 45 3.5 7.0 0.01 0.47 0.44 88 1005.2
20260506154859 57 315 1.7 3.5 0.04 0.47 0.44 89 1005.4
20260506153855 56 337 5.2 7.0 0.09 0.48 0.44 88 1005.9
20260506152851 57 315 2.6 3.5 0.09 0.48 0.44 88 1005.7
20260506151908 55 315 0.9 1.7 0.09 0.48 0.44 93 1005.3
20260506150845 53 315 2.6 3.5 0.09 0.48 0.44 92 1005.6
20260506145841 53 315 4.3 7.8 0.08 0.47 0.43 90 1006.0
20260506144838 55 292 3.5 5.2 0.04 0.43 0.40 90 1006.0
20260506143835 57 315 0.9 1.7 0.00 0.38 0.35 82 1006.4
20260506142830 58 315 5.2 7.8 0.00 0.38 0.35 83 1005.5
20260506141828 61 0.0 0.9 0.00 0.38 0.35 79 1005.8
20260506140825 63 45 1.7 5.2 0.00 0.40 0.35 83 1005.6
20260506135900 63 292 2.6 7.0 0.00 0.40 0.35 83 1005.3
20260506134816 63 90 5.2 9.6 0.00 0.40 0.35 83 1005.6
20260506133835 63 112 3.5 8.7 0.00 0.40 0.35 83 1005.5
20260506132812 62 135 7.8 15.6 0.00 0.40 0.35 84 1005.5
20260506131807 62 337 6.1 9.6 0.00 0.40 0.35 85 1005.5
20260506130803 62 45 6.1 14.8 0.00 0.40 0.35 83 1006.0
20260506125820 62 22 5.2 13.0 0.00 0.40 0.35 83 1006.2
20260506124756 62 337 6.1 13.0 0.00 0.40 0.35 84 1006.3
20260506123752 61 225 3.5 8.7 0.00 0.40 0.35 85 1006.3
20260506122748 61 90 3.5 10.4 0.00 0.40 0.35 85 1006.4
20260506121745 62 135 3.5 7.8 0.00 0.40 0.35 84 1006.4
20260506120742 62 67 3.5 7.0 0.00 0.40 0.35 84 1006.4
20260506115739 62 202 5.2 11.3 0.00 0.40 0.35 85 1006.3
20260506114735 60 112 5.2 11.3 0.00 0.40 0.35 87 1006.2
20260506113732 60 112 6.1 13.0 0.00 0.41 0.35 87 1006.7
20260506112729 60 135 7.0 13.0 0.00 0.41 0.35 86 1006.5
20260506111725 60 315 7.0 11.3 0.00 0.42 0.35 87 1006.8
20260506110722 60 112 6.1 9.6 0.00 0.43 0.35 86 1006.7
20260506105718 60 112 5.2 8.7 0.00 0.43 0.35 87 1006.6
20260506104715 60 67 3.5 8.7 0.00 0.44 0.35 89 1007.1
20260506103733 60 292 6.1 11.3 0.00 0.46 0.35 88 1006.9
20260506102709 60 202 4.3 10.4 0.00 0.47 0.35 88 1006.8
20260506101705 59 315 6.1 9.6 0.00 0.49 0.35 90 1007.0
20260506100704 58 45 5.2 7.8 0.00 0.50 0.35 93 1007.2
20260506095659 57 337 6.1 13.0 0.00 0.51 0.35 95 1006.9
20260506094657 56 315 4.3 13.0 0.04 0.51 0.35 98 1006.9
20260506093713 57 270 4.3 9.6 0.08 0.53 0.35 99 1006.8
20260506092709 56 112 6.1 9.6 0.10 0.53 0.35 99 1007.0
20260506091646 55 90 3.5 8.7 0.15 0.54 0.35 99 1007.0
20260506090642 55 337 6.1 13.0 0.23 0.54 0.35 99 1006.7
20260506085639 55 45 7.0 10.4 0.27 0.54 0.35 99 1006.2
20260506084637 55 315 9.6 17.4 0.24 0.49 0.30 99 1006.1
20260506083633 55 157 4.3 8.7 0.22 0.46 0.27 99 1006.7
20260506082647 55 292 4.3 9.6 0.20 0.43 0.24 98 1007.0
20260506081624 55 45 2.6 5.2 0.15 0.38 0.20 98 1007.1
20260506080621 55 315 3.5 7.0 0.07 0.30 0.11 97 1007.3
20260506072607 55 67 3.5 7.0 0.00 0.24 0.04 98 1007.2
20260506071604 55 292 2.6 7.8 0.00 0.25 0.04 99 1006.9
20260506070600 55 0 5.2 8.7 0.00 0.29 0.04 99 1007.2
20260506061541 55 0 1.7 3.5 0.00 0.38 0.04 99 1007.6
20260506060558 55 0 1.7 3.5 0.00 0.41 0.04 99 1007.6
20260506050515 54 337 3.5 7.0 0.02 0.46 0.04 99 1007.6
20260506044508 54 112 4.3 9.6 0.02 0.46 0.04 99 1007.9
20260506043505 54 112 2.6 7.0 0.02 0.46 0.04 99 1008.0
20260506042459 54 292 1.7 3.5 0.03 0.46 0.04 99 1008.0
20260506041456 54 292 2.6 5.2 0.02 0.44 0.03 99 1008.0
20260506040453 54 315 1.7 5.2 0.01 0.43 0.02 99 1008.4
20260506035512 54 135 1.7 2.6 0.01 0.43 0.02 99 1008.0
20260506034443 54 292 2.6 7.0 0.01 0.43 0.02 99 1007.9
20260506033440 54 112 2.6 5.2 0.02 0.43 0.02 99 1008.2
20260506032436 55 90 1.7 3.5 0.01 0.42 0.01 99 1008.5
20260506031432 55 0 2.6 7.8 0.01 0.42 0.01 99 1008.3
20260506030428 55 315 0.0 1.7 0.01 0.42 0.01 99 1008.5
20260506025425 55 112 0.9 2.6 0.01 0.42 0.01 99 1009.0
20260506024421 55 90 1.7 3.5 0.01 0.42 0.01 98 1008.8
20260506023418 55 292 0.9 2.6 0.00 0.41 0.00 98 1008.7
20260506022414 55 135 1.7 5.2 0.00 0.41 0.00 98 1009.2
20260506021410 55 112 0.9 2.6 0.00 0.41 0.00 98 1009.0
20260506020407 55 90 0.9 2.6 0.00 0.41 0.00 98 1009.5
20260506015405 55 112 1.7 3.5 0.00 0.41 0.00 99 1009.3
20260506014402 55 112 2.6 7.0 0.00 0.41 0.00 98 1009.2
20260506013358 55 90 2.6 7.0 0.00 0.41 0.00 99 1009.4
20260506012355 55 292 2.6 5.2 0.00 0.41 0.00 99 1009.3
20260506011352 55 135 0.9 2.6 0.00 0.41 0.00 99 1009.3
20260506010348 55 315 2.6 5.2 0.00 0.41 0.00 99 1009.6
20260506005346 55 112 2.6 3.5 0.00 0.41 0.00 99 1009.5
20260506004342 55 135 1.7 5.2 0.00 0.41 0.00 99 1009.8
20260506003339 55 45 1.7 3.5 0.00 0.41 0.00 99 1009.9
20260506002336 55 315 2.6 3.5 0.00 0.41 0.00 99 1009.9
20260506001333 55 315 2.6 3.5 0.00 0.41 0.00 99 1010.1
20260506000330 55 315 0.9 2.6 0.00 0.41 0.00 99 1009.9
20260505235327 55 90 0.0 0.9 0.00 0.41 0.00 99 1010.1
20260505234324 55 202 0.0 1.7 0.00 0.41 0.00 99 1010.3
20260505233321 55 292 0.0 1.7 0.00 0.41 0.00 99 1010.5
20260505232317 55 315 0.9 2.6 0.00 0.41 0.00 99 1010.4
20260505231312 55 315 0.0 1.7 0.00 0.41 0.00 99 1010.4
20260505230309 55 337 0.0 1.7 0.00 0.41 0.00 99 1010.5
20260505225306 55 315 0.9 3.5 0.00 0.41 0.00 99 1010.6
20260505224405 55 0.0 0.9 0.00 0.41 0.00 99 1010.7
20260505223259 55 0.0 0.9 0.00 0.41 0.00 99 1010.7
20260505222256 55 67 0.0 1.7 0.00 0.41 0.00 99 1010.9
20260505221251 55 0.0 0.9 0.00 0.41 0.00 99 1011.0
20260505220247 55 0.0 0.9 0.00 0.41 0.00 99 1010.7
20260505215245 55 315 0.0 1.7 0.00 0.41 0.41 99 1010.9
20260505214302 55 0.0 0.9 0.00 0.41 0.41 99 1010.9
20260505213237 55 315 0.9 2.6 0.00 0.41 0.41 99 1011.1
20260505212234 55 112 0.9 2.6 0.00 0.41 0.41 98 1011.3
20260505211230 55 128 0.9 1.7 0.00 0.41 0.41 98 1011.4
20260505210221 55 315 2.6 3.5 0.00 0.41 0.41 98 1011.3
20260505205238 55 337 1.7 3.5 0.00 0.41 0.41 98 1011.5
20260505204208 55 315 0.9 2.6 0.01 0.41 0.41 98 1011.6
20260505203157 55 315 0.9 2.6 0.01 0.41 0.41 98 1011.4
20260505202156 55 112 2.6 2.6 0.01 0.41 0.41 98 1011.5
20260505201144 55 112 1.7 3.5 0.01 0.41 0.41 98 1011.6
20260505200155 55 135 0.0 1.7 0.01 0.41 0.41 98 1011.7
20260505195144 55 0.0 0.0 0.01 0.41 0.41 98 1011.4
20260505194119 55 0.0 0.0 0.00 0.40 0.40 98 1011.4
20260505193110 55 112 2.6 5.2 0.00 0.40 0.40 98 1011.4
20260505192248 55 135 0.9 2.6 0.00 0.40 0.40 98 1011.1
20260505191055 55 112 0.9 2.6 0.00 0.40 0.40 98 1011.1
20260505190052 55 315 1.7 3.5 0.00 0.40 0.40 99 1011.0
20260505185048 55 112 1.7 3.5 0.00 0.40 0.40 99 1011.1
20260505184044 55 0 1.7 2.6 0.00 0.40 0.40 99 1011.2
20260505183123 55 0 0.0 1.7 0.00 0.40 0.40 99 1011.1
20260505182033 55 315 2.6 5.2 0.00 0.40 0.40 99 1011.0
20260505181029 55 315 1.7 5.2 0.00 0.40 0.40 99 1011.2
20260505180024 55 315 2.6 5.2 0.00 0.40 0.40 99 1011.0
20260505175020 55 112 3.5 5.2 0.00 0.40 0.40 99 1010.9
20260505174017 55 315 2.6 5.2 0.00 0.40 0.40 99 1010.9
20260505173011 55 315 5.2 7.8 0.00 0.40 0.40 99 1011.1
20260505172050 54 337 5.2 9.6 0.00 0.40 0.40 98 1011.1
20260505171006 55 292 2.6 5.2 0.00 0.40 0.40 98 1011.2
20260505170458 55 315 1.7 5.2 0.01 0.40 0.40 99 1010.9